User: anonymous   Login
Location: Unspecified
(0.0000°N, 0.0000°E)
Time: 12:50:28
(UTC+00:00)
Language:

Kosmos-1553 - Orbit

View from above orbital plane
View from above orbital plane
View from above satellite
View from above satellite

Ground track
Ground track

The orbit data is extracted from the following two-line orbital elements,

1 14973U 84046A   17229.88569468 +.00000008 +00000-0 -73651-5 0  9997
2 14973 082.9372 125.3200 0030862 276.0732 131.4806 13.75309070668352
Epoch (UTC): 17 August 2017 21:15:24
Eccentricity: 0.0030862
inclination: 82.9372°
perigee height: 958 km
apogee height: 1003 km
right ascension of ascending node: 125.3200°
argument of perigee: 276.0732°
revolutions per day: 13.75309070
mean anomaly at epoch: 131.4806°
orbit number at epoch: 66835

The dashed part of the orbit path shows where the satellite is in the earth's shadow,  

DLR